Location: ????????
(60.4333°N, 46.4710°E)
Time: 04:44:53
(UTC+00:00)

CZ-4 R/B - Pass Details

Date: 25 November 2020
Orbit: 533 x 597 km, 97.7° (Epoch: 19 January)

Event Time Altitude Azimuth Distance (km) Brightness Sun altitude
Exits shadow 14:26:40 - 139° (SE) 1,948 3.9 -16.3°
Reaches altitude 10° 14:26:57 10° 138° (SE) 1,838 3.7 -16.4°
Maximum altitude 14:30:47 48° 64° (ENE) 748 1.5 -16.8°
Drops below altitude 10° 14:34:42 10° 351° (N) 1,888 4.0 -17.3°
Sets 14:36:56 0° 346° (NNW) 2,802 5.0 -17.6°
